Showing default

LILIUM-1, 58467

Orbit data source: Space-Track

LILIUM-1, 58467 is a Taiwanese payload satellite in SSO that was launched on Fri, 01 Dec 2023 UTC via an FALCON 9 launch vehicle from the Air Force Western Test Range (AFWTR). Payload-class satellites include a variety of spacecraft equipped with specific instruments for various scientific and technological missions. These include communications satellites like Starlink; space stations such as the ISS; scientific satellites like the Hubble; Earth observation satellites from companies like Planet Labs, Umbra, and HawkEye 360; GPS; miniature CubeSats for education and research; and military/defense satellites.

Loading next visibility...
Identifier
58467, 2023-185F
Orbit
SSO
Country
Flag of TWTW / TWN
Related business
Manufacturer
NCKU
Mission
Operational Amateur Technology
Bus & Motor
CUBESAT 3U, Unknown motor
Mass
4 kg wet, 4 kg dry
Launch date (UTC)
2023-12-01 (2 years ago)
Launch vehicle
FALCON 9
Launch site
Air Force Western Test Range (AFWTR)
Object type
Payload
Rocket body
Debris
Shape & HBR
Box, 0.1 m
Radar Cross Section
0.035 m², Medium (>0.1 m² and < 1m²)

Expand to show TLE details & history
Last TLE update: 15 hours ago

TLE from 15 hours ago
0 LILIUM-1
1 58467U 23185F   25261.29411490  .00031877  00000-0  76619-3 0  9993
2 58467  97.3673 331.0884 0009111 102.1682 258.0586 15.41223735100138
Epoch: 2025-09-18T07:03Z
TLE epoch observation values (Epoch: 2025-09-18T07:03:31.527Z)
Latitude
Longitude
-132.25074°
Altitude
446.908 km
Speed
7.643 km/s
True Right ascension
22h 04m 21s
True Declination
0° 00' 00"
Sunlit
Object was in full shadow at epoch
Visualization orbit readout
Latitude
Unknown
Longitude
Unknown
Altitude
Unknown
Speed
Unknown
Apparent Right ascension
Unknown
Apparent Declination
Unknown
Sunlit
N/A
Visualization observer readout
Local Sidereal Time
15:22:46
Azimuth
Unknown
Elevation
Unknown
Doppler factor
Unknown
Orbital elements
Apogee altitude
445.644 km
Perigee altitude
433.221 km
Semi-major axis
6,817.569 km
Eccentricity
0.00091
Inclination
97.3673°
RAAN
331.0884°
Arg. of periapsis
102.1682°
True anomaly
257.95648°
Mean anomaly
258.0586°
Eccentric anomaly
258.00754°
Mean motion
3.85566 °/min
Orbital period
93.37 mins
BSTAR
0.00076619
Loading maneuver chart data...
Computing Atmospheric mass density...
Loading historical data...
Loading historical data...
Loading historical data...
Loading historical data...
Loading historical data...
Loading historical data...
Loading historical data...

Documentation

Showing up to 5 results
|